Location: Hookston
(37.9413°N, 122.0527°W)
Time: 15:37:50
(UTC+00:00)

ISS - Visible Passes

Search period start: 23 July 2024 00:00
Search period end: 02 August 2024 00:00
Orbit: 409 x 423 km, 51.6° (Epoch: 23 July)

Date Brightness Start Highest point End Pass type
(mag) Time Alt. Az. Time Alt. Az. Time Alt. Az.
23 Jul -1.1 04:47:09 10° NNW 04:48:56 14° NNE 04:50:42 10° NE visible
23 Jul -1.4 06:22:52 10° NW 06:24:19 24° NW 06:24:19 24° NW visible
24 Jul -0.9 03:59:17 10° N 04:00:05 11° NNE 04:00:54 10° NNE visible
24 Jul -2.7 05:34:25 10° NW 05:37:24 38° NNE 05:37:24 38° NNE visible
25 Jul -2.0 04:46:03 10° NNW 04:48:51 25° NNE 04:50:30 17° ENE visible
25 Jul -1.0 06:22:33 10° WNW 06:23:23 16° WNW 06:23:23 16° WNW visible
26 Jul -1.5 03:57:44 10° NNW 04:00:03 17° NNE 04:02:21 10° ENE visible
26 Jul -3.2 05:33:46 10° NW 05:36:29 54° W 05:36:29 54° W visible
27 Jul -3.6 04:45:08 10° NW 04:48:25 62° NE 04:49:37 34° ESE visible
28 Jul -2.7 03:56:34 10° NW 03:59:39 35° NNE 04:02:44 10° ESE visible
28 Jul -1.7 05:33:37 10° W 05:35:39 20° WSW 05:35:39 20° WSW visible
29 Jul -2.9 04:44:29 10° WNW 04:47:36 40° SW 04:48:50 27° S visible
30 Jul -3.8 03:55:35 10° NW 03:58:54 79° SW 04:02:04 11° SE visible
31 Jul -1.2 04:44:46 10° W 04:46:26 13° SW 04:48:05 10° SSW visible
01 Aug -1.9 03:55:01 10° WNW 03:57:46 24° SW 04:00:29 10° S visible
